TimeEDT,TemperatureF,Dew PointF,Humidity,Sea Level PressureIn,VisibilityMPH,Wind Direction,Wind SpeedMPH,Gust SpeedMPH,PrecipitationIn,Events,Conditions,WindDirDegrees,DateUTC
12:53 AM,27.0,21.9,81,30.16,10.0,Calm,Calm,-,N/A,,Clear,0,2013-03-31 04:53:00
1:53 AM,25.0,21.0,85,30.15,10.0,Calm,Calm,-,N/A,,Clear,0,2013-03-31 05:53:00
2:53 AM,23.0,19.9,88,30.14,10.0,Calm,Calm,-,N/A,,Clear,0,2013-03-31 06:53:00
3:53 AM,23.0,19.9,88,30.14,3.0,Calm,Calm,-,N/A,,Partly Cloudy,0,2013-03-31 07:53:00
3:55 AM,23.0,19.4,86,30.13,1.5,Calm,Calm,-,N/A,,Partly Cloudy,0,2013-03-31 07:55:00
4:05 AM,23.0,19.4,86,30.13,2.5,Calm,Calm,-,N/A,,Mostly Cloudy,0,2013-03-31 08:05:00
4:12 AM,23.0,19.4,86,30.13,5.0,Calm,Calm,-,N/A,,Mostly Cloudy,0,2013-03-31 08:12:00
4:16 AM,23.0,19.4,86,30.13,0.5,Calm,Calm,-,N/A,Fog,Light Freezing Fog,0,2013-03-31 08:16:00
4:24 AM,23.0,19.4,86,30.13,0.2,Calm,Calm,-,N/A,Fog,Light Freezing Fog,0,2013-03-31 08:24:00
4:38 AM,24.8,21.2,86,30.13,0.2,Calm,Calm,-,N/A,Fog,Light Freezing Fog,0,2013-03-31 08:38:00
4:49 AM,23.0,19.4,86,30.13,0.5,Calm,Calm,-,N/A,Fog,Light Freezing Fog,0,2013-03-31 08:49:00
4:53 AM,24.1,21.0,88,30.14,0.2,Calm,Calm,-,N/A,Fog,Light Freezing Fog,0,2013-03-31 08:53:00
5:53 AM,24.1,21.9,91,30.14,0.2,Calm,Calm,-,N/A,Fog,Light Freezing Fog,0,2013-03-31 09:53:00
6:28 AM,24.8,21.2,86,30.14,0.8,Calm,Calm,-,N/A,,Mist,0,2013-03-31 10:28:00
6:30 AM,24.8,21.2,86,30.14,1.0,Calm,Calm,-,N/A,,Mist,0,2013-03-31 10:30:00
6:38 AM,24.8,21.2,86,30.14,0.8,Calm,Calm,-,N/A,,Mist,0,2013-03-31 10:38:00
6:50 AM,24.8,21.2,86,30.14,2.0,Calm,Calm,-,N/A,,Overcast,0,2013-03-31 10:50:00
6:51 AM,24.1,21.9,91,30.14,2.5,Calm,Calm,-,N/A,,Overcast,0,2013-03-31 10:51:00
7:06 AM,24.8,23.0,93,30.13,4.0,Calm,Calm,-,N/A,,Overcast,0,2013-03-31 11:06:00
7:45 AM,28.4,28.4,100,30.13,6.0,Calm,Calm,-,N/A,,Scattered Clouds,0,2013-03-31 11:45:00
7:53 AM,30.9,30.0,96,30.14,6.0,Calm,Calm,-,N/A,,Partly Cloudy,0,2013-03-31 11:53:00
8:53 AM,44.1,37.9,79,30.14,10.0,SSW,5.8,-,N/A,,Clear,210,2013-03-31 12:53:00
9:53 AM,50.0,33.1,52,30.13,10.0,Variable,6.9,-,N/A,,Clear,0,2013-03-31 13:53:00
10:53 AM,51.1,34.0,52,30.13,10.0,SW,9.2,-,N/A,,Clear,230,2013-03-31 14:53:00
8:53 PM,45.0,39.9,82,29.81,9.0,ESE,9.2,17.3,0.03,Rain,Light Rain,120,2013-04-01 00:53:00
11:34 PM,46.4,44.6,93,29.66,2.5,SE,4.6,-,0.01,,Overcast,140,2013-04-01 03:34:00